Dewpoint
58 59 58 58 58 59 59 57 55 52 52 55 55 58 59 59 58 57 57 57 57 57 58 60 60 60 61 60 59 58 59 60 60 59 59 59 57 57
57 58 59 59 59 59 59 58 57 55 53 56 56 58 58 58 58 58 58 58 58 58 58 58 60 61 60 60 58 58 59 59 59 59 58 58 58 57
56 56 56 58 58 58 59 58 57 57 55 55 57 58 58 58 58 59 60 59 59 58 59 59 60 60 59 58 58 58 57 58 58 58 58 58 57 57
54 55 56 57 58 58 58 57 57 57 56 55 56 56 57 57 58 57 58 58 59 58 58 59 59 59 58 57 56 56 56 56 56 56 56 56 55 56
54 55 55 55 55 57 57 56 57 57 57 56 56 56 56 56 56 57 57 57 57 57 57 57 57 57 56 55 55 54 54 53 53 53 53 54 54 54
53 52 55 55 55 55 55 56 56 56 57 56 56 55 54 53 56 54 52 53 52 53 54 54 54 54 54 53 52 51 50 50 50 50 51 53 53 51
55 54 56 56 55 55 56 56 56 56 56 55 55 53 52 50 52 52 53 51 49 49 49 49 49 49 48 48 48 47 47 49 49 50 52 51 50 48
53 55 55 55 55 55 55 56 56 56 55 55 55 52 50 50 50 50 48 48 48 45 47 45 45 45 45 45 45 46 46 46 48 50 51 50 49 47
48 49 50 51 55 54 54 52 49 52 56 55 52 51 49 49 49 47 47 47 45 44 45 44 43 43 44 43 43 44 45 46 48 49 49 48 46 45
43 44 44 45 47 47 46 44 43 44 45 46 46 45 46 46 47 47 46 44 44 44 45 44 42 43 43 42 41 42 44 45 46 47 47 47 45 43
42 43 43 43 44 44 42 41 40 41 43 44 44 44 45 45 45 45 43 43 42 42 43 43 40 40 40 39 38 39 42 43 44 47 46 45 44 43
40 41 42 42 43 42 41 40 38 38 39 39 38 38 38 39 40 42 42 41 39 40 40 41 39 40 39 37 36 37 40 42 43 44 43 43 43 42
37 38 40 40 40 40 39 39 37 36 36 35 35 35 35 35 35 36 38 39 39 39 40 40 38 37 38 38 38 36 37 38 39 40 41 41 41 41
35 37 37 37 37 37 36 36 35 34 33 33 32 32 32 32 32 33 34 35 36 37 39 39 37 37 37 36 36 37 37 37 37 37 37 37 37 38
35 35 34 33 33 34 33 33 32 31 31 30 29 29 30 31 31 31 32 32 33 33 34 35 37 36 35 34 35 35 36 37 36 36 36 35 35 36
31 31 30 30 29 29 28 28 29 29 29 28 28 29 29 29 29 30 29 29 29 31 32 33 34 34 33 34 34 33 35 34 36 35 35 35 35 36
24 23 23 23 24 25 25 26 26 26 25 26 26 26 26 27 27 27 28 28 28 28 28 31 33 34 34 33 31 32 32 33 35 35 34 34 35 35
23 23 23 24 24 24 24 24 24 24 24 24 24 24 24 25 25 26 26 26 26 27 27 29 30 31 32 31 34 31 32 32 32 34 33 32 32 35
23 24 25 25 25 25 24 23 23 23 24 24 24 25 25 24 25 24 24 24 23 24 25 27 27 28 26 25 29 34 31 31 32 32 32 31 31 34
26 25 25 26 25 25 24 23 22 23 22 22 24 23 22 23 23 22 22 22 22 23 24 26 27 27 27 26 27 29 32 32 32 30 30 32 33 34
26 25 25 25 25 25 25 24 24 24 23 23 23 23 23 23 21 22 22 21 20 22 22 22 24 25 27 29 27 26 29 31 30 30 29 30 30 30
24 24 25 25 24 23 22 22 21 20 20 20 21 21 21 20 21 22 21 20 20 21 22 24 27 25 24 25 24 26 27 29 29 31 32 32 30 28
22 21 21 23 21 20 19 18 18 18 17 19 18 17 17 16 18 20 20 18 18 20 20 20 20 21 22 23 24 25 27 28 26 27 28 33 34 33
Wind_Speed
23 22 22 20 18 19 16 13 15 12 13 8 10 15 15 14 14 14 16 15 15 24 23 22 23 21 20 17 14 11 12 12 13 11 12 13 16 15
21 22 20 17 17 19 20 19 20 23 19 16 17 11 16 19 17 20 18 17 22 16 21 18 21 15 14 18 15 13 13 13 14 15 15 17 18 17
22 21 21 20 19 18 18 19 21 22 25 17 13 17 20 21 17 19 15 17 16 21 21 21 22 19 18 17 12 12 12 14 15 15 17 18 17 17
22 19 19 19 21 19 20 23 22 22 23 22 16 16 23 20 23 19 16 17 18 21 27 26 23 20 15 14 10 11 13 14 14 15 14 14 16 14
23 21 20 20 20 20 21 23 21 19 19 19 19 9 16 12 13 13 15 17 15 17 21 18 17 14 11 10 9 9 11 12 13 15 15 16 16 13
18 23 21 22 21 21 21 21 18 19 20 18 17 13 10 8 13 9 9 5 7 5 5 7 7 7 5 4 4 7 9 11 13 15 15 15 13 9
14 19 19 22 24 23 19 20 20 22 20 19 17 12 12 8 14 8 9 8 4 3 5 4 4 4 3 2 2 4 6 8 10 11 10 10 9 9
17 16 17 24 28 31 31 27 23 24 23 21 19 14 11 7 7 10 9 6 5 0 4 4 3 3 2 2 3 4 4 6 8 7 9 10 9 7
4 0 5 9 24 18 19 9 5 4 16 15 17 9 9 8 12 9 7 5 5 6 4 4 2 2 3 3 4 4 4 3 4 4 6 6 6 6
14 14 13 13 8 14 17 20 18 20 14 16 16 13 12 10 10 7 8 10 10 5 2 2 2 2 1 2 1 2 4 4 4 6 7 6 7 7
21 20 20 15 20 15 23 23 22 22 22 28 27 26 24 19 12 12 8 7 3 2 1 3 1 2 1 2 2 3 1 3 5 6 6 6 7 8
18 20 28 22 23 22 20 19 22 15 16 16 13 19 19 20 21 14 7 6 4 2 1 3 2 2 2 1 2 4 2 2 5 5 8 9 8 9
14 16 17 23 23 25 22 18 17 13 15 13 15 14 14 16 14 13 11 7 3 2 1 1 1 2 1 4 2 1 1 1 2 6 7 7 8 6
14 14 16 22 23 22 20 20 17 15 12 13 14 13 12 13 11 10 10 9 7 3 3 2 1 4 2 4 6 3 3 4 5 6 6 8 9 10
13 16 17 18 19 20 21 18 14 14 12 13 13 11 9 7 8 5 7 8 6 6 6 2 4 3 3 4 5 4 8 7 5 8 8 7 4 3
13 14 16 17 17 14 14 14 14 12 11 10 9 6 3 4 8 5 6 6 4 4 4 3 2 2 3 7 9 11 10 8 4 5 6 6 6 7
11 8 9 9 11 11 12 12 12 11 12 9 8 7 6 7 7 7 6 6 5 6 8 6 2 6 8 8 9 11 12 13 12 12 7 12 9 9
7 8 8 8 8 8 8 9 9 9 8 7 7 7 7 7 6 6 7 6 7 8 9 8 6 7 4 9 17 13 12 12 12 10 9 11 12 9
8 8 8 7 8 8 8 8 7 6 5 5 4 4 4 4 4 4 4 5 7 8 9 10 10 9 12 14 9 17 13 9 7 8 9 9 11 10
6 7 7 6 6 6 5 5 4 3 3 3 2 2 3 3 4 5 5 6 7 10 10 9 10 9 12 14 14 12 13 14 10 12 12 8 10 13
7 7 6 6 5 5 4 4 4 3 3 3 3 4 5 5 6 7 9 11 12 10 11 11 11 14 13 13 13 13 13 18 16 15 10 11 9 4
6 6 5 5 5 5 4 3 1 1 2 2 2 3 3 4 6 8 9 9 11 11 12 13 10 9 12 14 16 17 17 11 12 14 21 19 6 6
6 6 5 5 5 4 3 3 2 0 1 2 2 2 3 5 6 6 7 10 11 11 12 12 13 12 13 14 17 17 17 16 12 13 14 19 22 18
Wind_Direction
224 222 231 232 224 230 217 200 226 225 221 209 206 202 214 222 221 219 227 226 236 239 244 241 246 237 228 212 210 228 251 248 253 248 233 227 232 242
223 218 217 220 219 219 222 220 215 226 234 216 215 196 196 207 204 206 215 219 225 234 238 242 240 226 215 226 219 239 253 253 249 250 247 241 245 247
221 217 222 221 217 215 208 208 214 214 229 234 199 195 205 203 207 219 217 221 229 225 233 229 227 220 215 231 237 252 268 260 250 252 252 250 253 254
222 214 226 228 226 217 216 216 214 216 225 232 218 214 214 214 223 221 223 223 229 221 215 207 207 210 210 229 235 253 257 260 262 256 253 256 259 243
219 212 220 223 230 228 225 231 224 218 220 231 241 215 217 213 214 210 217 222 210 196 191 196 201 207 205 220 232 247 256 261 260 262 256 251 252 219
227 240 218 221 226 228 228 231 233 231 227 226 230 226 208 211 210 205 202 193 172 148 158 163 177 183 197 216 234 257 264 269 268 262 256 248 212 212
232 232 223 227 225 225 224 224 223 225 225 219 226 205 200 188 201 173 195 162 99 142 145 146 147 137 137 142 236 268 274 284 276 268 252 214 213 225
237 233 227 228 229 227 224 222 214 222 227 233 226 214 206 178 149 166 145 141 169 149 131 130 104 137 169 184 222 236 235 248 268 261 236 202 213 248
74 155 266 260 227 213 216 172 99 145 209 185 188 170 160 167 147 148 140 138 131 149 120 141 114 172 184 198 229 238 236 274 292 255 219 218 253 270
52 64 59 44 57 126 118 100 76 61 68 83 97 87 93 91 99 118 129 108 95 105 86 144 170 200 251 258 20 275 277 277 268 247 231 245 259 277
50 50 54 53 70 85 86 92 81 68 63 76 79 77 71 70 75 102 90 110 94 83 57 123 153 276 279 326 355 354 310 291 289 261 255 259 268 283
48 54 55 58 64 70 85 91 81 68 68 64 62 57 63 60 54 60 79 107 111 110 356 173 158 27 345 9 11 70 65 298 308 279 275 276 271 274
59 53 57 63 65 71 72 76 92 87 78 75 68 58 50 53 45 43 40 71 96 90 344 114 110 117 255 299 277 209 191 230 270 284 273 280 278 274
80 72 69 70 70 68 69 76 78 85 80 77 70 58 50 42 38 44 42 37 28 30 349 38 250 202 193 275 279 306 284 294 290 281 267 261 260 266
86 91 82 75 72 67 68 69 69 68 77 78 73 62 57 63 59 53 48 31 29 17 360 341 257 238 234 250 273 277 305 297 259 275 278 260 266 257
79 76 79 77 76 80 72 67 70 78 89 94 96 91 88 69 65 60 46 22 14 11 26 21 303 255 292 269 263 266 254 259 268 248 259 274 261 251
98 85 77 75 75 70 67 69 70 71 75 76 81 81 67 53 46 28 25 15 5 339 325 331 291 258 244 249 265 260 263 260 258 268 255 273 264 249
107 113 104 98 95 96 95 88 80 75 74 77 69 56 43 37 21 17 10 355 332 320 311 302 300 313 277 260 225 249 257 265 277 263 247 262 272 255
128 129 127 127 125 120 121 115 112 103 95 83 79 69 58 28 6 346 348 332 312 305 299 301 295 282 288 282 276 216 246 267 271 269 248 243 262 265
121 132 131 134 136 127 113 99 90 82 51 18 16 25 358 330 325 321 313 304 298 293 292 287 284 289 287 287 283 281 222 245 261 271 271 252 257 266
143 138 136 129 123 118 114 89 69 60 53 26 8 357 347 338 324 314 305 301 298 296 292 289 286 302 304 296 281 280 271 227 239 254 263 254 251 244
144 134 125 118 115 108 94 92 98 24 352 353 345 351 350 336 310 304 305 306 303 291 292 292 289 305 302 294 292 284 277 261 243 249 250 237 227 226
136 134 132 135 139 141 142 148 152 213 314 277 288 299 318 320 315 309 302 300 300 301 307 304 302 295 290 283 285 290 279 272 265 257 261 244 236 245